This is the latest recevied weather packets stored in our database for station/object F4ETJ-1. If no packets are shown the sender has not sent any weather packets the latest 10 day(s).
| Time | Temp. | Humidity | Pressure | Rain* | Wind** | Luminosity | Snow |
|---|---|---|---|---|---|---|---|
| 1787934929 | 23.33° C | 57% | 1014.6 hPa | 0 mm | - | - | - |
| 1787934569 | 23.33° C | 60% | 1014.6 hPa | 0 mm | - | - | - |
| 1787934209 | 22.22° C | 61% | 1014.6 hPa | 0 mm | - | - | - |
| 1787933848 | 22.78° C | 60% | 1014.6 hPa | 0 mm | - | - | - |
| 1787933488 | 22.78° C | 59% | 1014.5 hPa | 0 mm | - | - | - |
| 1787933127 | 23.33° C | 58% | 1014.5 hPa | 0 mm | - | - | - |
| 1787932767 | 23.89° C | 57% | 1014.5 hPa | 0 mm | - | - | - |
| 1787932407 | 23.89° C | 57% | 1014.5 hPa | 0 mm | - | - | - |
| 1787932046 | 23.89° C | 57% | 1014.4 hPa | 0 mm | - | - | - |
| 1787931686 | 23.89° C | 57% | 1014.5 hPa | 0 mm | - | - | - |
| 1787931326 | 23.33° C | 57% | 1014.4 hPa | 0 mm | - | - | - |
| 1787930965 | 23.89° C | 58% | 1014.5 hPa | 0 mm | - | - | - |
| 1787930605 | 23.89° C | 60% | 1014.4 hPa | 0 mm | - | - | - |
| 1787930245 | 23.89° C | 58% | 1014.5 hPa | 0 mm | - | - | - |
| 1787929884 | 23.33° C | 58% | 1014.5 hPa | 0 mm | - | - | - |
| 1787929524 | 22.78° C | 64% | 1014.6 hPa | 0 mm | - | - | - |
| 1787929164 | 22.78° C | 63% | 1014.5 hPa | 0 mm | - | - | - |
| 1787928803 | 23.33° C | 62% | 1014.6 hPa | 0 mm | - | - | - |
| 1787928443 | 23.33° C | 63% | 1014.6 hPa | 0 mm | - | - | - |
| 1787928083 | 23.33° C | 59% | 1014.5 hPa | 0 mm | - | - | - |
| 1787927722 | 24.44° C | 55% | 1014.5 hPa | 0 mm | - | - | - |
| 1787927362 | 23.89° C | 56% | 1014.5 hPa | 0 mm | - | - | - |
| 1787927002 | 23.89° C | 56% | 1014.4 hPa | 0 mm | - | - | - |
| 1787926641 | 23.89° C | 57% | 1014.4 hPa | 0 mm | - | - | - |
| 1787926281 | 23.89° C | 57% | 1014.4 hPa | 0 mm | - | - | - |
* Rain latest hour (hover to see other rain measurements)
** Current wind speed in m/s (hover to see current wind gust speed)